TimeMDT,TemperatureF,Dew PointF,Humidity,Sea Level PressureIn,VisibilityMPH,Wind Direction,Wind SpeedMPH,Gust SpeedMPH,PrecipitationIn,Events,Conditions,WindDirDegrees,DateUTC
12:55 AM,55.0,39.9,57,29.72,10.0,WNW,9.2,-,N/A,,Clear,300,2013-10-01 06:55:00
1:55 AM,60.1,37.9,44,29.72,10.0,NNW,10.4,20.7,N/A,,Clear,340,2013-10-01 07:55:00
2:55 AM,55.9,39.0,53,29.75,10.0,NNW,11.5,16.1,N/A,,Clear,340,2013-10-01 08:55:00
3:55 AM,53.1,39.0,59,29.79,10.0,North,9.2,-,N/A,,Clear,350,2013-10-01 09:55:00
4:55 AM,55.0,37.0,51,29.81,10.0,NNE,9.2,17.3,N/A,,Clear,30,2013-10-01 10:55:00
5:55 AM,51.1,37.0,59,29.86,10.0,North,11.5,-,N/A,,Clear,360,2013-10-01 11:55:00
6:55 AM,48.9,39.0,69,29.94,10.0,NNE,13.8,23.0,N/A,,Clear,20,2013-10-01 12:55:00
7:55 AM,51.1,30.9,46,29.99,10.0,NE,10.4,19.6,N/A,,Clear,50,2013-10-01 13:55:00
8:55 AM,55.9,30.0,37,30.01,10.0,ESE,9.2,-,N/A,,Clear,110,2013-10-01 14:55:00
9:55 AM,60.1,33.1,36,30.01,10.0,NE,10.4,-,N/A,,Clear,40,2013-10-01 15:55:00
10:55 AM,62.1,35.1,37,30.00,10.0,ESE,9.2,-,N/A,,Clear,110,2013-10-01 16:55:00
11:55 AM,66.0,37.0,34,29.97,10.0,ESE,6.9,-,N/A,,Clear,110,2013-10-01 17:55:00
12:55 PM,68.0,37.0,32,29.92,10.0,East,9.2,23.0,N/A,,Clear,100,2013-10-01 18:55:00
1:55 PM,71.1,37.9,30,29.88,10.0,SE,11.5,19.6,N/A,,Clear,130,2013-10-01 19:55:00
2:55 PM,72.0,37.0,28,29.87,10.0,ESE,15.0,25.3,N/A,,Clear,120,2013-10-01 20:55:00
3:55 PM,73.0,37.0,27,29.86,10.0,SE,13.8,-,N/A,,Clear,130,2013-10-01 21:55:00
4:55 PM,72.0,34.0,25,29.83,10.0,SE,17.3,23.0,N/A,,Clear,130,2013-10-01 22:55:00
5:55 PM,69.1,37.0,31,29.86,10.0,SE,12.7,20.7,N/A,,Clear,130,2013-10-01 23:55:00
6:55 PM,60.1,39.9,47,29.89,10.0,SE,11.5,19.6,N/A,,Clear,130,2013-10-02 00:55:00
7:55 PM,54.0,43.0,66,29.91,10.0,SE,9.2,-,N/A,,Clear,130,2013-10-02 01:55:00
8:55 PM,50.0,43.0,77,29.92,10.0,SE,4.6,-,N/A,,Clear,130,2013-10-02 02:55:00
9:55 PM,48.9,43.0,80,29.91,10.0,Calm,Calm,-,N/A,,Clear,0,2013-10-02 03:55:00
10:55 PM,46.0,42.1,86,29.91,10.0,Calm,Calm,-,N/A,,Clear,0,2013-10-02 04:55:00
11:55 PM,44.1,39.9,85,29.89,10.0,Calm,Calm,-,N/A,,Clear,0,2013-10-02 05:55:00